Location: Asheville, NC
(35.6000°N, 82.5500°W)
Time: 08:00:34
(UTC-04:00)

M-CUBED/EXP-1 PRIME - Visible Passes

Search period start: 18 July 2018 00:00
Search period end: 28 July 2018 00:00
Orbit: 431 x 675 km, 101.7° (Epoch: 17 July)

Date Brightness Start Highest point End Pass type
(mag) Time Alt. Az. Time Alt. Az. Time Alt. Az.
18 Jul ? 23:16:33 26° NNE 23:16:33 26° NNE 23:18:41 10° N visible
19 Jul ? 23:13:03 24° NE 23:13:03 24° NE 23:15:08 10° N visible
20 Jul ? 23:09:32 21° NE 23:09:32 21° NE 23:11:33 10° N visible
21 Jul ? 23:06:01 19° NE 23:06:01 19° NE 23:07:55 10° NNE visible
22 Jul ? 00:41:47 11° NW 00:41:47 11° NW 00:41:59 10° NW visible
22 Jul ? 23:02:31 17° NE 23:02:31 17° NE 23:04:16 10° NNE visible
23 Jul ? 00:38:17 12° NW 00:38:17 12° NW 00:38:46 10° NW visible
23 Jul ? 22:59:00 15° NE 22:59:00 15° NE 23:00:35 10° NNE visible
24 Jul ? 00:34:46 14° NW 00:34:46 14° NW 00:35:29 10° NW visible
24 Jul ? 22:55:30 14° NE 22:55:30 14° NE 22:56:50 10° NNE visible
25 Jul ? 00:31:16 16° NW 00:31:16 16° NW 00:32:11 10° NW visible
25 Jul ? 22:51:59 12° NE 22:51:59 12° NE 22:53:00 10° NE visible
26 Jul ? 00:27:45 17° NW 00:27:45 17° NW 00:28:50 10° NNW visible
26 Jul ? 22:48:29 11° NE 22:48:29 11° NE 22:48:57 10° NE visible
27 Jul ? 00:24:15 18° NW 00:24:15 18° NW 00:25:28 10° NNW visible
